Simultaneous Nadir Overpasses (SNOs) Predictions

Prediction of SNOs between AQUA and METOP-B Satellite Orbit:

Table of predicted SNOs for the next 14.0 days since TLE Epoch: 8/4/2017
Index Date (AQUA) Time (AQUA) Lat,Lon (AQUA) SZA (AQUA ) Date (METOP-B) Time (METOP-B) Lat,Lon (METOP-B) SZA (METOP-B ) Distance(km) Time Diff (sec)
1 08/05/2017 14:40:57 73.39, -45.16 56.61 08/05/2017 14:39:48 73.36, -46.83 56.67 53.32 69
2 08/05/2017 15:30:31 -73.81, 121.60 122.94 08/05/2017 15:30:21 -73.80, 121.52 122.93 2.48 10
3 08/05/2017 16:20:00 73.91, -70.99 57.19 08/05/2017 16:20:59 73.89, -70.95 57.16 2.99 59
4 08/08/2017 10:15:16 73.59, 20.86 57.61 08/08/2017 10:14:05 73.52, 19.94 57.59 30.21 71
5 08/08/2017 11:04:47 -73.84,-172.05 122.11 08/08/2017 11:04:41 -73.82,-172.04 122.14 3.07 6
6 08/08/2017 11:54:15 73.90, -4.53 57.96 08/08/2017 11:55:19 73.89, -4.52 57.95 0.53 64
7 08/11/2017 05:49:34 73.74, 86.98 58.59 08/11/2017 05:48:21 73.72, 86.82 58.59 5.07 73
8 08/11/2017 06:39:02 -73.84,-105.60 121.30 08/11/2017 06:39:01 -73.83,-105.61 121.31 0.99 1
9 08/11/2017 07:28:30 73.89, 61.92 58.77 08/11/2017 07:29:39 73.90, 61.90 58.77 1.06 69
10 08/14/2017 01:23:49 73.79, 153.30 59.49 08/14/2017 01:22:39 73.78, 153.36 59.49 2.34 70
11 08/14/2017 02:13:16 -73.84, -39.16 120.46 08/14/2017 02:13:20 -73.84, -39.17 120.45 0.58 4
12 08/14/2017 03:02:45 73.94, 128.24 59.67 08/14/2017 03:03:57 73.95, 128.44 59.67 6.18 72
13 08/16/2017 20:58:04 73.80,-140.27 60.37 08/16/2017 20:56:59 73.78,-140.22 60.37 2.31 65
14 08/16/2017 21:47:31 -73.84, 27.27 119.57 08/16/2017 21:47:40 -73.85, 27.25 119.57 0.67 9




NCC Satellite Simultaneous Nadir Overpasses (SNOs) Prediction Service
